Regional Weather Roundup
Issued by NWS

Home | Current Version | Previous Version | Graphics & Text | Print | Product List | Glossary On
Versions: 1 2 3 4 5 6 7 8 9 10 11 12 13 14 15 16 17 18 19 20 21 22 23 24 25 26 27 28 29 30 31 32 33 34 35 36 37 38 39 40 41 42 43 44 45 46 47 48 49 50
000
ASUS45 KPSR 302210
RWRAZ

ARIZONA HOURLY REGIONAL WEATHER ROUNDUP
NATIONAL WEATHER SERVICE PHOENIX AZ
300 PM MST THU JUL 30 2015

NOTE: FAIR INDICATES FEW OR NO CLOUDS BELOW 12,000 FEET WITH NO
SIGNIFICANT WEATHER AND/OR OBSTRUCTIONS TO VISIBILITY.

AZZ001>003-036-302300-
NORTHWEST ARIZONA

CITY           SKY/WX    TMP DP  RH WIND       PRES   REMARKS
BULLHEAD CITY  MOSUNNY  108  50  14 NW8       29.86F HX 104
KINGMAN        CLOUDY    83  57  41 SE28G37   30.12R
$$

AZZ004>008-015-016-018-302300-
NORTH CENTRAL ARIZONA

CITY           SKY/WX    TMP DP  RH WIND       PRES   REMARKS
GRAND CANYON   CLOUDY    77  44  30 NE12      30.39F
WILLIAMS       CLOUDY    73  52  46 NW6       30.44F
PRESCOTT       PTSUNNY   83  54  36 N8        30.24F
FLAGSTAFF      CLOUDY    72  52  49 E9        30.41F
PAYSON         MOSUNNY   86  55  35 S10G17    30.27S
PAGE           MOSUNNY   93  48  21 E5        30.17F
$$

AZZ009>014-017-302300-
NORTHEAST ARIZONA

CITY           SKY/WX    TMP DP  RH WIND       PRES   REMARKS
WINSLOW        MOSUNNY   85  50  29 VRB3      30.24F
SAINT JOHNS    CLOUDY    76  56  49 W6        30.31F
SHOW LOW       MOSUNNY   73  55  53 NE8       30.38F
$$

AZZ023-302300-
GREATER PHOENIX AREA

CITY           SKY/WX    TMP DP  RH WIND       PRES   REMARKS
PHOENIX        MOSUNNY  104  56  20 VRB7      29.91F HX 103
GLENDALE       MOSUNNY  102  57  22 VRB6      29.94F HX 101
LUKE AFB       SUNNY    102  59  24 E5        29.91F HX 102
DEER VALLEY    SUNNY    100  57  23 NE6       29.94F
SCOTTSDALE     SUNNY    100  57  23 CALM      29.96F
MESA-FALCON    MOSUNNY  104  57  21 S14       29.94F HX 103
MESA-GATEWAY   MOSUNNY  100  61  27 VRB5      29.96F HX 101
CHANDLER       MOSUNNY  102  59  24 SW8       29.93F HX 102
$$

AZZ027-028-302300-
SOUTHWEST MARICOPA COUNTY AND PINAL COUNTY

CITY           SKY/WX    TMP DP  RH WIND       PRES   REMARKS
CASA GRANDE    SUNNY    102  57  22 CALM      29.94F HX 101
$$

AZZ503-504-507>509-302300-
SOUTHEAST ARIZONA

CITY           SKY/WX    TMP DP  RH WIND       PRES   REMARKS
TUCSON         MOSUNNY   97  57  26 VRB7      30.05F
DAVIS-MONTHAN  MOSUNNY   96  58  27 E1        30.03F
RYAN FIELD     SUNNY     97  59  28 NE3       30.03F
NOGALES        MOSUNNY   93  60  33 SW6       30.14F
DOUGLAS          N/A    N/A N/A N/A MISG      30.14F
SAFFORD        MOSUNNY   94  57  28 MISG      30.08F
$$

AZZ020-021-025-026-031-302300-
SOUTHWEST ARIZONA

CITY           SKY/WX    TMP DP  RH WIND       PRES   REMARKS
YUMA           PTSUNNY  107  62  23 S8        29.85F HX 109
$$

CAZ031-033-041-043-047-048-061-302300-
SOUTHERN CALIFORNIA

CITY           SKY/WX    TMP DP  RH WIND       PRES   REMARKS
DOWNTOWN L.A.  SUNNY     80  65  59 CALM      29.97F
L.A. AIRPORT   MOSUNNY   75  65  70 W14       29.99F
SAN DIEGO      PTSUNNY   79  65  62 W9        30.00F
BURBANK        MOSUNNY   88  64  44 S12       29.97S
ONTARIO        MOSUNNY   96  64  34 W17G24    29.96F
RIVERSIDE      PTSUNNY   95  66  38 W15G22    29.94F
PALM SPRINGS   MOSUNNY  109  63  22 E10       29.87F HX 112
EL CENTRO NAS  MOSUNNY  106  62  23 VRB7      29.84F HX 108
IMPERIAL       SUNNY    106  62  23 E8G20     29.82F HX 108
BLYTHE         SUNNY    106  59  21 VRB5      29.85F HX 106
NEEDLES        PTSUNNY  108  55  17 E9        29.88F THUNDER HX 107
$$

NVZ020-UTZ003-302300-
SOUTHERN NEVADA-UTAH

CITY           SKY/WX    TMP DP  RH WIND       PRES   REMARKS
LAS VEGAS      PTSUNNY  103  46  14 E5        29.95F
SALT LAKE CITY MOSUNNY   92  22   8 NW10      30.23F
$$

NMZ009-TXZ055-302300-
NEW MEXICO-WEST TEXAS

CITY           SKY/WX    TMP DP  RH WIND       PRES   REMARKS
ALBUQUERQUE    PTSUNNY   82  57  42 N6        30.30F
EL PASO        MOSUNNY   88  58  36 W5        30.15F
$$


........................KEY........................
SKY/WX - SKY CONDITION/WEATHER
TMP    - TEMPERATURE IN FAHRENHEIT
DP     - DEW POINT IN FAHRENHEIT
RH     - RELATIVE HUMIDITY IN PERCENT
WIND   - DIRECTION AND SPEED IN MILES PER HOUR (MPH)
VRB    - VARIABLE WIND DIRECTION
PRES   - MEAN SEA LEVEL PRESSURE IN INCHES OF MERCURY
         F - FALLING PRESSURE   R - RISING PRESSURE
         S - STEADY PRESSURE
VSB    - VISIBILITY IN MILES
HX     - HEAT INDEX IN FAHRENHEIT
WCI    - WIND CHILL INDEX IN FAHRENHEIT
TC     - TEMPERATURE IN CELSIUS WHICH IS ALSO KNOWN AS
         TEMPERATURE IN CENTIGRADE
AFB    - AIR FORCE BASE
         LUKE AFB IS LUKE AIR FORCE BASE
         DAVIS-MONTHAN IS DAVIS-MONTHAN AIR FORCE BASE
NAS    - NAVAL AIR STATION
         EL CENTRO NAS IS EL CENTRO NAVAL AIR STATION
N/A    - NOT AVAILABLE




USA.gov is the U.S. government's official web portal to all federal, state and local government web resources and services.